Time,TemperatureF,DewpointF,PressureIn,WindDirection,WindDirectionDegrees,WindSpeedMPH,WindSpeedGustMPH,Humidity,HourlyPrecipIn,Conditions,Clouds,dailyrainin,SoftwareType,DateUTC
2013-07-22 00:01:00,52.0,52.0,30.02,NE,37,0.0,5.0,100,0.00,,,0.00,,2013-07-22 07:01:00,
2013-07-22 00:11:00,52.0,52.0,30.02,NNW,329,0.0,5.0,100,0.00,,,0.00,,2013-07-22 07:11:00,
2013-07-22 00:22:00,52.0,52.0,30.03,North,0,0.0,0.0,100,0.00,,,0.00,,2013-07-22 07:22:00,
2013-07-22 00:33:00,52.0,52.0,30.02,North,0,2.0,9.0,100,0.00,,,0.00,,2013-07-22 07:33:00,
2013-07-22 00:43:00,51.0,51.0,30.03,NNE,22,0.0,12.0,100,0.00,,,0.00,,2013-07-22 07:43:00,
2013-07-22 00:52:00,51.0,51.0,30.03,North,0,0.0,9.0,100,0.00,,,0.00,,2013-07-22 07:52:00,
2013-07-22 01:01:00,51.0,51.0,30.03,North,0,0.0,9.0,100,0.00,,,0.00,,2013-07-22 08:01:00,
2013-07-22 01:11:00,51.0,51.0,30.03,North,0,1.0,4.0,100,0.00,,,0.00,,2013-07-22 08:11:00,
2013-07-22 01:32:00,51.0,51.0,30.03,NNE,26,3.0,8.0,100,0.00,,,0.00,,2013-07-22 08:32:00,
2013-07-22 01:43:00,51.0,51.0,30.03,North,0,0.0,9.0,100,0.00,,,0.00,,2013-07-22 08:43:00,
2013-07-22 01:52:00,51.0,51.0,30.03,NNE,16,0.0,9.0,100,0.00,,,0.00,,2013-07-22 08:52:00,
2013-07-22 02:02:00,51.0,51.0,30.03,North,0,0.0,0.0,100,0.00,,,0.00,,2013-07-22 09:02:00,
2013-07-22 02:11:00,51.0,51.0,30.03,North,0,0.0,0.0,100,0.00,,,0.00,,2013-07-22 09:11:00,
2013-07-22 02:22:00,51.0,51.0,30.03,North,0,0.0,2.0,100,0.00,,,0.00,,2013-07-22 09:22:00,
2013-07-22 02:33:00,51.0,51.0,30.04,North,0,0.0,8.0,100,0.00,,,0.00,,2013-07-22 09:33:00,
2013-07-22 02:42:00,51.0,51.0,30.04,NE,40,0.0,1.0,100,0.00,,,0.00,,2013-07-22 09:42:00,
2013-07-22 02:52:00,51.0,51.0,30.04,NNE,25,0.0,8.0,100,0.00,,,0.00,,2013-07-22 09:52:00,
2013-07-22 03:01:00,51.0,51.0,30.04,North,7,0.0,7.0,100,0.00,,,0.00,,2013-07-22 10:01:00,
2013-07-22 03:11:00,51.0,51.0,30.04,North,0,0.0,8.0,100,0.00,,,0.00,,2013-07-22 10:11:00,
2013-07-22 03:32:00,51.0,51.0,30.04,North,355,0.0,7.0,100,0.00,,,0.00,,2013-07-22 10:32:00,
2013-07-22 03:43:00,51.0,51.0,30.04,NE,35,0.0,2.0,100,0.00,,,0.00,,2013-07-22 10:43:00,
2013-07-22 03:52:00,51.0,51.0,30.04,NE,35,0.0,2.0,100,0.00,,,0.00,,2013-07-22 10:52:00,
2013-07-22 04:01:00,51.0,51.0,30.04,NE,35,1.0,4.0,100,0.00,,,0.00,,2013-07-22 11:01:00,
2013-07-22 04:11:00,51.0,51.0,30.04,North,357,0.0,8.0,100,0.00,,,0.00,,2013-07-22 11:11:00,
2013-07-22 04:32:00,51.0,51.0,30.04,NNE,19,0.0,4.0,100,0.00,,,0.00,,2013-07-22 11:32:00,
2013-07-22 04:43:00,51.0,51.0,30.05,North,0,0.0,8.0,100,0.00,,,0.00,,2013-07-22 11:43:00,
2013-07-22 04:52:00,51.0,51.0,30.05,North,0,0.0,0.0,100,0.00,,,0.00,,2013-07-22 11:52:00,
2013-07-22 05:02:00,51.0,51.0,30.05,North,0,0.0,0.0,100,0.00,,,0.00,,2013-07-22 12:02:00,
2013-07-22 05:11:00,51.0,51.0,30.05,North,0,0.0,0.0,100,0.00,,,0.00,,2013-07-22 12:11:00,
2013-07-22 05:32:00,51.0,51.0,30.06,North,0,0.0,0.0,100,0.00,,,0.00,,2013-07-22 12:32:00,
2013-07-22 05:43:00,51.0,51.0,30.06,NW,306,0.0,7.0,100,0.00,,,0.00,,2013-07-22 12:43:00,
2013-07-22 05:52:00,51.0,51.0,30.06,North,0,0.0,7.0,100,0.00,,,0.00,,2013-07-22 12:52:00,
2013-07-22 06:32:00,51.0,51.0,30.06,North,0,0.0,0.0,100,0.00,,,0.00,,2013-07-22 13:32:00,
2013-07-22 06:53:00,52.0,52.0,30.06,North,0,0.0,0.0,100,0.00,,,0.00,,2013-07-22 13:53:00,
2013-07-22 07:11:00,52.0,52.0,30.07,NNE,32,0.0,2.0,100,0.00,,,0.00,,2013-07-22 14:11:00,
2013-07-22 07:32:00,52.0,52.0,30.07,North,0,0.0,5.0,100,0.00,,,0.00,,2013-07-22 14:32:00,
2013-07-22 07:53:00,52.0,52.0,30.07,North,0,0.0,0.0,100,0.00,,,0.00,,2013-07-22 14:53:00,
2013-07-22 08:01:00,53.0,53.0,30.07,North,0,0.0,0.0,100,0.00,,,0.00,,2013-07-22 15:01:00,
2013-07-22 08:32:00,53.0,53.0,30.08,North,0,0.0,7.0,100,0.00,,,0.00,,2013-07-22 15:32:00,
2013-07-22 08:42:00,53.0,53.0,30.08,NNE,16,0.0,6.0,100,0.00,,,0.00,,2013-07-22 15:42:00,
2013-07-22 08:52:00,53.0,53.0,30.09,NNE,12,0.0,3.0,100,0.00,,,0.00,,2013-07-22 15:52:00,
2013-07-22 09:01:00,53.0,53.0,30.09,North,0,0.0,3.0,100,0.00,,,0.00,,2013-07-22 16:01:00,
2013-07-22 09:11:00,53.0,53.0,30.09,North,0,0.0,3.0,100,0.00,,,0.00,,2013-07-22 16:11:00,
2013-07-22 09:21:00,53.0,53.0,30.09,North,0,0.0,3.0,100,0.00,,,0.00,,2013-07-22 16:21:00,
2013-07-22 09:32:00,54.0,54.0,30.09,North,0,0.0,5.0,100,0.00,,,0.00,,2013-07-22 16:32:00,
2013-07-22 09:43:00,54.0,54.0,30.09,North,0,0.0,5.0,100,0.00,,,0.00,,2013-07-22 16:43:00,
2013-07-22 09:52:00,54.0,54.0,30.09,North,9,4.0,8.0,100,0.00,,,0.00,,2013-07-22 16:52:00,
2013-07-22 10:01:00,54.0,54.0,30.09,North,11,0.0,8.0,100,0.00,,,0.00,,2013-07-22 17:01:00,
2013-07-22 10:11:00,54.0,54.0,30.09,North,11,0.0,8.0,100,0.00,,,0.00,,2013-07-22 17:11:00,
2013-07-22 10:23:00,54.0,54.0,30.09,North,11,0.0,8.0,100,0.00,,,0.00,,2013-07-22 17:23:00,
2013-07-22 10:32:00,54.0,54.0,30.09,North,11,0.0,8.0,100,0.00,,,0.00,,2013-07-22 17:32:00,
2013-07-22 10:42:00,54.0,54.0,30.09,NW,316,6.0,9.0,100,0.00,,,0.00,,2013-07-22 17:42:00,
2013-07-22 10:52:00,54.0,54.0,30.09,NNW,333,0.0,11.0,100,0.00,,,0.00,,2013-07-22 17:52:00,
2013-07-22 11:13:00,54.0,54.0,30.09,North,8,6.0,9.0,100,0.00,,,0.00,,2013-07-22 18:13:00,
2013-07-22 11:21:00,54.0,54.0,30.09,North,8,6.0,9.0,100,0.00,,,0.00,,2013-07-22 18:21:00,
2013-07-22 11:32:00,56.0,56.0,30.09,North,7,8.0,15.0,99,0.00,,,0.00,,2013-07-22 18:32:00,
2013-07-22 12:02:00,56.0,56.0,30.09,NNE,29,5.0,19.0,99,0.00,,,0.00,,2013-07-22 19:02:00,
2013-07-22 12:21:00,56.0,55.0,30.09,North,7,10.0,20.0,98,0.00,,,0.00,,2013-07-22 19:21:00,
2013-07-22 12:32:00,56.0,55.0,30.09,North,0,0.0,2.0,98,0.00,,,0.00,,2013-07-22 19:32:00,
2013-07-22 12:43:00,56.0,55.0,30.09,North,0,0.0,11.0,98,0.00,,,0.00,,2013-07-22 19:43:00,
2013-07-22 13:12:00,56.0,55.0,30.09,North,0,0.0,17.0,98,0.00,,,0.00,,2013-07-22 20:12:00,
2013-07-22 13:32:00,56.0,55.0,30.09,North,357,0.0,13.0,97,0.00,,,0.00,,2013-07-22 20:32:00,
2013-07-22 13:43:00,56.0,55.0,30.09,North,0,0.0,17.0,98,0.00,,,0.00,,2013-07-22 20:43:00,
2013-07-22 14:01:00,55.0,55.0,30.09,North,0,0.0,0.0,99,0.00,,,0.00,,2013-07-22 21:01:00,
2013-07-22 14:32:00,57.0,56.0,30.09,North,0,0.0,21.0,97,0.00,,,0.00,,2013-07-22 21:32:00,
2013-07-22 14:43:00,56.0,55.0,30.09,North,0,0.0,3.0,97,0.00,,,0.00,,2013-07-22 21:43:00,
2013-07-22 15:11:00,57.0,56.0,30.08,NNE,29,0.0,23.0,96,0.00,,,0.00,,2013-07-22 22:11:00,
2013-07-22 15:32:00,57.0,56.0,30.08,North,0,0.0,3.0,96,0.00,,,0.00,,2013-07-22 22:32:00,
2013-07-22 15:52:00,57.0,56.0,30.07,North,0,0.0,0.0,96,0.00,,,0.00,,2013-07-22 22:52:00,
2013-07-22 16:42:00,56.0,55.0,30.06,North,357,0.0,22.0,96,0.00,,,0.00,,2013-07-22 23:42:00,
2013-07-22 16:52:00,56.0,55.0,30.06,NNE,14,5.0,21.0,97,0.00,,,0.00,,2013-07-22 23:52:00,
2013-07-22 17:01:00,56.0,55.0,30.06,North,0,0.0,0.0,97,0.00,,,0.00,,2013-07-23 00:01:00,
2013-07-22 17:11:00,56.0,55.0,30.06,North,357,0.0,7.0,97,0.00,,,0.00,,2013-07-23 00:11:00,
2013-07-22 17:43:00,56.0,55.0,30.05,North,357,1.0,22.0,98,0.00,,,0.00,,2013-07-23 00:43:00,
2013-07-22 18:22:00,56.0,55.0,30.04,North,0,8.0,24.0,98,0.00,,,0.00,,2013-07-23 01:22:00,
2013-07-22 18:32:00,56.0,55.0,30.04,NNE,33,8.0,17.0,98,0.00,,,0.00,,2013-07-23 01:32:00,
2013-07-22 19:01:00,54.0,54.0,30.05,NNE,16,12.0,20.0,99,0.00,,,0.00,,2013-07-23 02:01:00,
2013-07-22 19:11:00,54.0,54.0,30.05,NNE,16,12.0,20.0,99,0.00,,,0.00,,2013-07-23 02:11:00,
2013-07-22 19:33:00,53.0,53.0,30.05,North,5,2.0,17.0,100,0.00,,,0.00,,2013-07-23 02:33:00,
2013-07-22 19:43:00,52.0,52.0,30.05,NNW,331,6.0,18.0,100,0.00,,,0.00,,2013-07-23 02:43:00,
2013-07-22 20:01:00,52.0,52.0,30.05,NNE,30,9.0,15.0,100,0.00,,,0.00,,2013-07-23 03:01:00,
2013-07-22 20:11:00,52.0,52.0,30.05,North,357,4.0,15.0,100,0.00,,,0.00,,2013-07-23 03:11:00,
2013-07-22 20:33:00,52.0,52.0,30.05,NNE,18,3.0,17.0,100,0.00,,,0.00,,2013-07-23 03:33:00,
2013-07-22 20:43:00,51.0,51.0,30.05,NNE,29,3.0,14.0,100,0.00,,,0.00,,2013-07-23 03:43:00,
2013-07-22 20:52:00,51.0,51.0,30.05,North,5,0.0,14.0,100,0.00,,,0.00,,2013-07-23 03:52:00,
2013-07-22 21:01:00,51.0,51.0,30.05,NNE,18,1.0,15.0,100,0.00,,,0.00,,2013-07-23 04:01:00,
2013-07-22 21:11:00,51.0,51.0,30.05,NE,37,2.0,15.0,100,0.00,,,0.00,,2013-07-23 04:11:00,
2013-07-22 21:42:00,51.0,51.0,30.05,NNW,348,0.0,6.0,100,0.00,,,0.00,,2013-07-23 04:42:00,
2013-07-22 21:53:00,50.0,50.0,30.05,NNW,334,1.0,11.0,100,0.00,,,0.00,,2013-07-23 04:53:00,
2013-07-22 22:02:00,50.0,50.0,30.05,NNW,334,1.0,11.0,100,0.00,,,0.00,,2013-07-23 05:02:00,
2013-07-22 22:11:00,50.0,50.0,30.05,NNW,334,1.0,11.0,100,0.00,,,0.00,,2013-07-23 05:11:00,
2013-07-22 22:33:00,50.0,50.0,30.06,North,0,0.0,5.0,100,0.00,,,0.00,,2013-07-23 05:33:00,
2013-07-22 22:43:00,50.0,50.0,30.06,North,8,0.0,5.0,100,0.00,,,0.00,,2013-07-23 05:43:00,
2013-07-22 22:52:00,50.0,50.0,30.06,North,0,0.0,3.0,100,0.00,,,0.00,,2013-07-23 05:52:00,
2013-07-22 23:01:00,50.0,50.0,30.06,North,0,0.0,3.0,100,0.00,,,0.00,,2013-07-23 06:01:00,